International Virtual Aviation Organisation

Russian Federation and Kazakhstan MCD

 

Карточка аэропорта URKA

Внимание!
Информация на этой странице в стадии наполнения.
Если вы не увидели какой-то информации, или заметили неточность - пожалуйста сообщите нам!
Спасибо!
Команда RU-STAFF
Название аэропортаВитязево
Название аэропорта (англ.)Vityazevo
Превышение176 ft. (53.6 m.)
Координаты45°0.13200000000012', 37°20.832'
Высота перехода1100m
Эшелон переходаFL050
Коды ответчика2400-2407
Зона ОрВДРостов-на-Дону РПИ (URRV)
Данные METARURKA 282100Z VRB01MPS 9999 BKN///CB 11/07 Q1005 R22/010070 NOSIG RMK QFE749/0999
Проноз погоды (TAF)URKA 281956Z 2821/2921 09003G08MPS 9999 SCT040CB TEMPO 2821/2915 18003G08MPS 6000 -TSRA SCT011 BKN020CB
NOTAMshow/hide NOTAM
AWOS   TABLE

Информация о ВПП

ВПП Длина ВПП (м.) Покрытие Курс ВПП Частота ILS
042500Цементобетон36109.1
222500Цементобетон216 

Диспетчерские позиции

Позывной Наименование органа УВД Частота
URKA_R_APPАнапа-Круг118.7
URKA_TWRАнапа-Старт119.8
URKA_GNDАнапа-Руление119.0
URKAFM1119,0



Спутниковое изображение